When you browse on this site, cookies collect data to enhance your experience and personalize the content and advertising you see.
Visit our Privacy Policy to learn more. By continuing to use the site, you agree to this use of cookies and data.
  • In Italy
  • List of Countries
  • For 7 days
  • Water Temperature
  • Satellite Maps
  • Weather Map
  • Weather Widgets
  • user-avatar
    Login

    Hourly Weather Perugia

    Today, 16 January, Wednesday

    Time Temperature Precipitation Wind Pressure Humidity
    00:00 +3°C° 0 mm 1 mps 732 mmHg 56%
    01:00 +3°C° 0 mm 1 mps 732 mmHg 57%
    02:00 +2°C° 0 mm 1 mps 732 mmHg 58%
    03:00 +2°C° 0 mm 1 mps 732 mmHg 59%
    04:00 +2°C° 0 mm 1 mps 732 mmHg 60%
    05:00 +2°C° 0 mm 1 mps 732 mmHg 64%
    06:00 +2°C° 0 mm 1 mps 732 mmHg 68%
    07:00 +2°C° 0 mm 1 mps 732 mmHg 71%
    08:00 +3°C° 0 mm 1 mps 732 mmHg 71%
    09:00 +4°C° 0 mm 2 mps 733 mmHg 70%
    10:00 +5°C° 0 mm 2 mps 733 mmHg 70%
    11:00 +7°C° 0 mm 2 mps 733 mmHg 69%
    12:00 +8°C° 0 mm 3 mps 733 mmHg 69%
    13:00 +8°C° 0 mm 4 mps 733 mmHg 68%
    14:00 +9°C° 0.1 mm 3 mps 732 mmHg 73%
    15:00 +8°C° 0.1 mm 3 mps 732 mmHg 77%
    16:00 +7°C° 0.1 mm 2 mps 732 mmHg 82%
    17:00 +6°C° 0 mm 2 mps 732 mmHg 85%
    18:00 +5°C° 0 mm 2 mps 731 mmHg 87%
    19:00 +4°C° 0 mm 2 mps 731 mmHg 90%
    20:00 +4°C° 0 mm 2 mps 731 mmHg 90%
    21:00 +3°C° 0 mm 2 mps 731 mmHg 90%
    22:00 +3°C° 0 mm 2 mps 731 mmHg 90%
    23:00 +3°C° 0 mm 2 mps 731 mmHg 89%

    Tomorrow, 17 January, Thursday

    Time Temperature Precipitation Wind Pressure Humidity
    00:00 +3°C° 0 mm 2 mps 731 mmHg 88%
    01:00 +2°C° 0 mm 2 mps 731 mmHg 87%
    02:00 +3°C° 0 mm 2 mps 730 mmHg 86%
    03:00 +4°C° 0 mm 2 mps 730 mmHg 85%
    04:00 +4°C° 0 mm 2 mps 730 mmHg 83%
    05:00 +5°C° 0.1 mm 2 mps 729 mmHg 86%
    06:00 +5°C° 0.1 mm 2 mps 729 mmHg 88%
    07:00 +5°C° 0.1 mm 2 mps 729 mmHg 90%
    08:00 +6°C° 0.5 mm 2 mps 729 mmHg 91%
    09:00 +6°C° 0.5 mm 2 mps 729 mmHg 91%
    10:00 +5°C° 0.5 mm 3 mps 729 mmHg 91%
    11:00 +5°C° 0.7 mm 3 mps 728 mmHg 92%
    12:00 +5°C° 0.7 mm 3 mps 728 mmHg 92%
    13:00 +7°C° 0.7 mm 3 mps 728 mmHg 92%
    14:00 +7°C° 0.3 mm 3 mps 727 mmHg 92%
    15:00 +7°C° 0.3 mm 3 mps 727 mmHg 93%
    16:00 +8°C° 0.3 mm 3 mps 727 mmHg 93%
    17:00 +7°C° 0.2 mm 3 mps 727 mmHg 94%
    18:00 +7°C° 0.2 mm 3 mps 727 mmHg 95%
    19:00 +7°C° 0.2 mm 3 mps 727 mmHg 96%
    20:00 +7°C° 0.1 mm 3 mps 727 mmHg 96%
    21:00 +7°C° 0.1 mm 3 mps 727 mmHg 96%
    22:00 +5°C° 0.1 mm 3 mps 727 mmHg 96%
    23:00 +6°C° 0 mm 2 mps 726 mmHg 96%

    Day after tomorrow, 18 January, Friday

    Time Temperature Precipitation Wind Pressure Humidity
    00:00 +6°C° 0 mm 2 mps 726 mmHg 97%
    01:00 +5°C° 0 mm 2 mps 726 mmHg 97%
    02:00 +5°C° 0 mm 2 mps 726 mmHg 97%
    03:00 +5°C° 0 mm 2 mps 726 mmHg 97%
    04:00 +5°C° 0 mm 2 mps 726 mmHg 96%
    05:00 +5°C° 0 mm 2 mps 726 mmHg 96%
    06:00 +6°C° 0 mm 2 mps 726 mmHg 95%
    07:00 +6°C° 0 mm 2 mps 726 mmHg 94%
    08:00 +7°C° 0 mm 2 mps 727 mmHg 91%
    09:00 +7°C° 0 mm 2 mps 727 mmHg 89%
    10:00 +8°C° 0 mm 2 mps 727 mmHg 86%
    11:00 +8°C° 0.1 mm 2 mps 727 mmHg 83%
    12:00 +9°C° 0.1 mm 3 mps 727 mmHg 80%
    13:00 +10°C° 0.1 mm 3 mps 727 mmHg 77%
    14:00 +10°C° 0.3 mm 3 mps 727 mmHg 78%
    15:00 +10°C° 0.3 mm 3 mps 727 mmHg 79%
    16:00 +9°C° 0.3 mm 3 mps 727 mmHg 79%
    17:00 +8°C° 0 mm 3 mps 727 mmHg 84%
    18:00 +7°C° 0 mm 3 mps 727 mmHg 88%
    19:00 +5°C° 0 mm 3 mps 727 mmHg 92%
    20:00 +5°C° 0 mm 3 mps 727 mmHg 93%
    21:00 +6°C° 0 mm 2 mps 727 mmHg 93%
    22:00 +6°C° 0 mm 2 mps 727 mmHg 94%
    23:00 +5°C° 0 mm 2 mps 727 mmHg 94%

    19 January, Saturday

    Time Temperature Precipitation Wind Pressure Humidity
    00:00 +5°C° 0 mm 2 mps 727 mmHg 94%
    01:00 +5°C° 0 mm 2 mps 727 mmHg 94%
    02:00 +5°C° 0.1 mm 2 mps 727 mmHg 94%
    03:00 +5°C° 0.1 mm 2 mps 727 mmHg 95%
    04:00 +4°C° 0.1 mm 2 mps 726 mmHg 95%
    05:00 +4°C° 0 mm 2 mps 726 mmHg 95%
    06:00 +4°C° 0 mm 2 mps 726 mmHg 96%
    07:00 +4°C° 0 mm 2 mps 726 mmHg 96%
    08:00 +5°C° 0 mm 2 mps 726 mmHg 93%
    09:00 +6°C° 0 mm 2 mps 727 mmHg 90%
    10:00 +7°C° 0 mm 2 mps 727 mmHg 87%
    11:00 +7°C° 0.1 mm 2 mps 727 mmHg 82%
    12:00 +8°C° 0.1 mm 2 mps 727 mmHg 77%
    13:00 +9°C° 0.1 mm 2 mps 726 mmHg 72%
    14:00 +10°C° 0.1 mm 1 mps 726 mmHg 73%
    15:00 +9°C° 0.1 mm 1 mps 726 mmHg 74%
    16:00 +9°C° 0.1 mm 1 mps 726 mmHg 75%
    17:00 +8°C° 0.2 mm 1 mps 726 mmHg 79%
    18:00 +8°C° 0.2 mm 1 mps 726 mmHg 83%
    19:00 +7°C° 0.2 mm 1 mps 726 mmHg 86%
    20:00 +7°C° 0.4 mm 1 mps 726 mmHg 88%
    21:00 +6°C° 0.4 mm 1 mps 726 mmHg 90%
    22:00 +6°C° 0.4 mm 1 mps 726 mmHg 92%
    23:00 +6°C° 0.1 mm 1 mps 726 mmHg 92%

    20 January, Sunday

    Time Temperature Precipitation Wind Pressure Humidity
    00:00 +6°C° 0.1 mm 1 mps 726 mmHg 92%
    01:00 +5°C° 0.1 mm 1 mps 726 mmHg 93%
    02:00 +5°C° 0 mm 1 mps 726 mmHg 92%
    03:00 +5°C° 0 mm 1 mps 726 mmHg 92%
    04:00 +5°C° 0 mm 1 mps 726 mmHg 91%
    05:00 +4°C° 0 mm 1 mps 726 mmHg 91%
    06:00 +4°C° 0 mm 1 mps 726 mmHg 90%
    07:00 +4°C° 0 mm 1 mps 726 mmHg 90%
    08:00 +5°C° 0 mm 1 mps 727 mmHg 85%
    09:00 +6°C° 0 mm 1 mps 727 mmHg 81%
    10:00 +7°C° 0 mm 1 mps 727 mmHg 76%
    11:00 +8°C° 0 mm 1 mps 727 mmHg 72%
    12:00 +9°C° 0 mm 1 mps 727 mmHg 67%
    13:00 +10°C° 0 mm 1 mps 727 mmHg 63%
    14:00 +10°C° 0 mm 1 mps 727 mmHg 64%
    15:00 +8°C° 0 mm 2 mps 727 mmHg 66%
    16:00 +8°C° 0 mm 2 mps 727 mmHg 67%
    17:00 +7°C° 0 mm 2 mps 727 mmHg 73%
    18:00 +5°C° 0 mm 3 mps 727 mmHg 79%
    19:00 +4°C° 0 mm 3 mps 727 mmHg 86%
    20:00 +4°C° 0 mm 3 mps 727 mmHg 87%
    21:00 +3°C° 0 mm 3 mps 727 mmHg 88%
    22:00 +3°C° 0 mm 3 mps 728 mmHg 90%
    23:00 +3°C° 0.2 mm 3 mps 728 mmHg 89%

    21 January, Monday

    Time Temperature Precipitation Wind Pressure Humidity
    00:00 +3°C° 0.2 mm 3 mps 727 mmHg 89%
    01:00 +4°C° 0.2 mm 3 mps 727 mmHg 89%
    02:00 +4°C° 0.4 mm 3 mps 727 mmHg 88%
    03:00 +4°C° 0.4 mm 4 mps 727 mmHg 88%
    04:00 +3°C° 0.4 mm 5 mps 727 mmHg 87%
    05:00 +3°C° 0.2 mm 5 mps 727 mmHg 86%
    06:00 +3°C° 0.2 mm 5 mps 726 mmHg 85%
    07:00 +3°C° 0.2 mm 6 mps 726 mmHg 84%
    08:00 +4°C° 0.1 mm 6 mps 726 mmHg 84%
    09:00 +5°C° 0.1 mm 6 mps 726 mmHg 83%
    10:00 +5°C° 0.1 mm 6 mps 727 mmHg 82%
    11:00 +7°C° 0.1 mm 6 mps 726 mmHg 81%
    12:00 +6°C° 0.1 mm 7 mps 726 mmHg 79%
    13:00 +6°C° 0.1 mm 7 mps 726 mmHg 78%
    14:00 +6°C° 0.8 mm 7 mps 725 mmHg 80%
    15:00 +6°C° 0.8 mm 7 mps 725 mmHg 83%
    16:00 +5°C° 0.8 mm 6 mps 725 mmHg 85%
    17:00 +5°C° 0.4 mm 6 mps 724 mmHg 85%
    18:00 +5°C° 0.4 mm 6 mps 724 mmHg 86%
    19:00 +7°C° 0.4 mm 6 mps 724 mmHg 86%
    20:00 +6°C° 0.2 mm 5 mps 724 mmHg 87%
    21:00 +6°C° 0.2 mm 5 mps 723 mmHg 88%
    22:00 +6°C° 0.2 mm 4 mps 723 mmHg 89%
    23:00 +5°C° 0 mm 4 mps 723 mmHg 90%
    Show more